Time,TemperatureF,DewpointF,PressureIn,WindDirection,WindDirectionDegrees,WindSpeedMPH,WindSpeedGustMPH,Humidity,HourlyPrecipIn,Conditions,Clouds,dailyrainin,SolarRadiationWatts/m^2,SoftwareType,DateUTC
2013-04-29 00:00:00,45.0,37.0,-100.00,SSE,157,1.0,-999.0,72,-99.99,,,-99.99,0.000000,,2013-04-29 04:00:00,
2013-04-29 00:43:00,45.0,37.0,-100.00,SSE,157,1.0,-999.0,72,-99.99,,,-99.99,0.000000,,2013-04-29 04:43:00,
2013-04-29 00:52:00,45.0,37.0,-100.00,SSE,157,1.0,-999.0,72,-99.99,,,-99.99,0.000000,,2013-04-29 04:52:00,
2013-04-29 01:00:00,47.0,37.0,-100.00,SSE,157,1.0,-999.0,68,-99.99,,,-99.99,0.000000,,2013-04-29 05:00:00,
2013-04-29 01:42:00,47.0,37.0,-100.00,SSE,157,1.0,-999.0,68,-99.99,,,-99.99,0.000000,,2013-04-29 05:42:00,
2013-04-29 01:52:00,47.0,37.0,-100.00,SSE,157,1.0,-999.0,68,-99.99,,,-99.99,0.000000,,2013-04-29 05:52:00,
2013-04-29 02:00:00,54.0,44.0,-100.00,South,180,5.0,-999.0,69,-99.99,,,-99.99,0.000000,,2013-04-29 06:00:00,
2013-04-29 02:42:00,54.0,44.0,-100.00,South,180,5.0,-999.0,69,-99.99,,,-99.99,0.000000,,2013-04-29 06:42:00,
2013-04-29 02:52:00,54.0,44.0,-100.00,South,180,5.0,-999.0,69,-99.99,,,-99.99,0.000000,,2013-04-29 06:52:00,
2013-04-29 03:00:00,52.0,45.0,-100.00,SSE,157,4.0,-999.0,77,-99.99,,,-99.99,0.000000,,2013-04-29 07:00:00,
2013-04-29 03:42:00,52.0,45.0,-100.00,SSE,157,4.0,-999.0,77,-99.99,,,-99.99,0.000000,,2013-04-29 07:42:00,
2013-04-29 03:52:00,52.0,45.0,-100.00,SSE,157,4.0,-999.0,77,-99.99,,,-99.99,0.000000,,2013-04-29 07:52:00,
2013-04-29 04:00:00,49.0,45.0,-100.00,SSE,157,3.0,-999.0,86,-99.99,,,-99.99,0.000000,,2013-04-29 08:00:00,
2013-04-29 04:42:00,49.0,45.0,-100.00,SSE,157,3.0,-999.0,86,-99.99,,,-99.99,0.000000,,2013-04-29 08:42:00,
2013-04-29 04:52:00,49.0,45.0,-100.00,SSE,157,3.0,-999.0,86,-99.99,,,-99.99,0.000000,,2013-04-29 08:52:00,
2013-04-29 05:00:00,48.0,46.0,-100.00,SSE,157,3.0,-999.0,90,-99.99,,,-99.99,0.000000,,2013-04-29 09:00:00,
2013-04-29 05:42:00,48.0,46.0,-100.00,SSE,157,3.0,-999.0,90,-99.99,,,-99.99,0.000000,,2013-04-29 09:42:00,
2013-04-29 05:53:00,48.0,46.0,-100.00,SSE,157,3.0,-999.0,90,-99.99,,,-99.99,0.000000,,2013-04-29 09:53:00,
2013-04-29 06:00:00,49.0,46.0,-100.00,South,180,2.0,-999.0,88,-99.99,,,-99.99,0.000000,,2013-04-29 10:00:00,
2013-04-29 06:42:00,49.0,46.0,-100.00,South,180,2.0,-999.0,88,-99.99,,,-99.99,0.000000,,2013-04-29 10:42:00,
2013-04-29 06:52:00,49.0,46.0,-100.00,South,180,2.0,-999.0,88,-99.99,,,-99.99,0.000000,,2013-04-29 10:52:00,
2013-04-29 07:00:00,45.0,43.0,-100.00,SSE,157,2.0,-999.0,93,-99.99,,,-99.99,3.480000,,2013-04-29 11:00:00,
2013-04-29 07:42:00,45.0,43.0,-100.00,SSE,157,2.0,-999.0,93,-99.99,,,-99.99,3.480000,,2013-04-29 11:42:00,
2013-04-29 07:52:00,45.0,43.0,-100.00,SSE,157,2.0,-999.0,93,-99.99,,,-99.99,3.480000,,2013-04-29 11:52:00,
2013-04-29 09:00:00,54.0,49.0,-100.00,South,180,5.0,-999.0,83,-99.99,,,-99.99,174.000000,,2013-04-29 13:00:00,
2013-04-29 09:42:00,54.0,49.0,-100.00,South,180,5.0,-999.0,83,-99.99,,,-99.99,174.000000,,2013-04-29 13:42:00,
2013-04-29 09:52:00,54.0,49.0,-100.00,South,180,5.0,-999.0,83,-99.99,,,-99.99,174.000000,,2013-04-29 13:52:00,
2013-04-29 10:00:00,58.0,50.0,-100.00,SSW,202,4.0,-999.0,74,-99.99,,,-99.99,422.239990,,2013-04-29 14:00:00,
2013-04-29 10:42:00,58.0,50.0,-100.00,SSW,202,4.0,-999.0,74,-99.99,,,-99.99,422.239990,,2013-04-29 14:42:00,
2013-04-29 10:52:00,58.0,50.0,-100.00,SSW,202,4.0,-999.0,74,-99.99,,,-99.99,422.239990,,2013-04-29 14:52:00,
2013-04-29 11:00:00,58.0,50.0,-100.00,WSW,247,3.0,-999.0,74,-99.99,,,-99.99,278.399994,,2013-04-29 15:00:00,
2013-04-29 11:43:00,58.0,50.0,-100.00,WSW,247,3.0,-999.0,74,-99.99,,,-99.99,278.399994,,2013-04-29 15:43:00,
2013-04-29 11:53:00,58.0,50.0,-100.00,WSW,247,3.0,-999.0,74,-99.99,,,-99.99,278.399994,,2013-04-29 15:53:00,
2013-04-29 12:00:00,55.0,49.0,-100.00,SE,135,4.0,-999.0,80,-99.99,,,-99.99,129.919998,,2013-04-29 16:00:00,
2013-04-29 12:42:00,55.0,49.0,-100.00,SE,135,4.0,-999.0,80,-99.99,,,-99.99,129.919998,,2013-04-29 16:42:00,
2013-04-29 12:52:00,55.0,49.0,-100.00,SE,135,4.0,-999.0,80,-99.99,,,-99.99,129.919998,,2013-04-29 16:52:00,
2013-04-29 13:00:00,53.0,48.0,-100.00,WSW,247,5.0,-999.0,83,-99.99,,,-99.99,189.080002,,2013-04-29 17:00:00,
2013-04-29 13:42:00,53.0,48.0,-100.00,WSW,247,5.0,-999.0,83,-99.99,,,-99.99,189.080002,,2013-04-29 17:42:00,
2013-04-29 13:52:00,53.0,48.0,-100.00,WSW,247,5.0,-999.0,83,-99.99,,,-99.99,189.080002,,2013-04-29 17:52:00,
2013-04-29 14:00:00,48.0,46.0,-100.00,WSW,247,7.0,-999.0,93,-99.99,,,-99.99,198.360001,,2013-04-29 18:00:00,
2013-04-29 14:42:00,48.0,46.0,-100.00,WSW,247,7.0,-999.0,93,-99.99,,,-99.99,198.360001,,2013-04-29 18:42:00,
2013-04-29 14:52:00,48.0,46.0,-100.00,WSW,247,7.0,-999.0,93,-99.99,,,-99.99,198.360001,,2013-04-29 18:52:00,
2013-04-29 16:00:00,52.0,51.0,-100.00,SW,225,5.0,-999.0,96,0.04,,,-99.99,63.799999,,2013-04-29 20:00:00,
2013-04-29 16:43:00,52.0,51.0,-100.00,SW,225,5.0,-999.0,96,0.04,,,-99.99,63.799999,,2013-04-29 20:43:00,
2013-04-29 16:52:00,52.0,51.0,-100.00,SW,225,5.0,-999.0,96,0.04,,,-99.99,63.799999,,2013-04-29 20:52:00,
2013-04-29 18:00:00,50.0,48.0,-100.00,SE,135,4.0,-999.0,95,-99.99,,,-99.99,88.160004,,2013-04-29 22:00:00,
2013-04-29 18:42:00,50.0,48.0,-100.00,SE,135,4.0,-999.0,95,-99.99,,,-99.99,88.160004,,2013-04-29 22:42:00,
2013-04-29 18:53:00,50.0,48.0,-100.00,SE,135,4.0,-999.0,95,-99.99,,,-99.99,88.160004,,2013-04-29 22:53:00,
2013-04-29 19:00:00,52.0,51.0,-100.00,SE,135,5.0,-999.0,97,0.01,,,-99.99,54.520000,,2013-04-29 23:00:00,
2013-04-29 19:42:00,52.0,51.0,-100.00,SE,135,5.0,-999.0,97,0.01,,,-99.99,54.520000,,2013-04-29 23:42:00,
2013-04-29 19:53:00,52.0,51.0,-100.00,SE,135,5.0,-999.0,97,0.01,,,-99.99,54.520000,,2013-04-29 23:53:00,